RH
49 62 72 77 79 78 76 77 75 75 77 77 78 80 81 85 96 100 100 98 94 92 91 90 90 91 91 88 85 84 81 80 78 76 79 85 92 96 96 90 85 91 88 86 97 97 91 93 100 100 99 96
40 47 57 66 72 75 74 74 74 74 77 79 78 78 82 87 95 99 100 98 95 94 92 91 91 94 95 91 88 84 80 78 75 73 75 80 90 94 93 93 90 85 82 86 95 97 91 92 98 100 100 98
44 47 53 61 69 75 77 76 76 78 80 83 84 88 89 88 92 97 100 99 98 97 93 92 91 95 98 95 91 87 81 77 75 74 73 74 82 91 93 92 87 83 86 90 94 96 95 94 97 100 100 99
49 54 57 60 68 75 78 79 79 80 83 84 85 91 93 90 90 93 98 98 97 98 96 94 91 93 98 98 94 90 83 78 77 76 74 71 76 89 94 90 83 85 91 92 92 94 97 98 98 100 100 100
56 61 64 63 70 76 77 79 79 79 82 84 85 89 91 92 90 90 95 95 96 98 98 97 92 93 98 99 96 93 87 81 79 77 76 71 75 88 92 90 85 84 91 91 90 93 98 100 100 100 100 100
65 67 69 72 78 84 86 87 85 83 84 87 88 88 90 94 94 94 97 98 99 98 98 99 95 94 97 100 99 95 90 85 81 80 80 75 77 86 85 89 87 81 88 89 87 94 99 100 100 100 100 99
73 77 82 87 91 94 96 97 96 94 94 95 95 94 94 98 99 98 99 100 100 99 98 99 96 94 95 100 100 97 94 88 85 82 82 79 79 84 84 91 90 82 87 87 85 94 100 100 100 100 100 99
81 89 96 98 99 99 99 99 100 99 99 100 99 99 98 100 100 99 100 99 100 99 99 99 97 97 97 100 100 98 96 91 90 88 88 84 84 91 93 97 95 89 89 86 83 89 98 101 99 100 100 99
92 98 100 100 100 100 100 100 100 100 100 100 100 100 100 100 100 100 100 99 100 100 100 99 99 98 97 99 100 99 98 96 97 97 96 94 95 99 99 100 99 95 91 86 82 85 95 100 100 100 100 99
99 100 100 100 100 99 100 100 100 100 99 100 100 100 99 100 100 100 100 100 100 100 99 99 99 98 95 97 99 100 100 99 100 99 100 100 100 100 100 100 98 95 90 86 84 86 95 100 100 100 100 99
100 100 100 100 100 100 100 100 99 99 99 99 100 99 99 99 100 100 100 100 100 100 100 99 100 99 98 99 99 100 100 100 100 99 99 97 97 98 100 100 98 96 92 91 92 93 97 100 100 100 100 99
100 100 100 100 100 100 100 100 99 99 100 100 100 99 99 99 99 100 100 100 100 99 99 100 100 99 100 100 99 100 99 98 97 94 91 86 85 89 95 98 99 99 97 97 98 99 100 100 100 100 99 99
100 100 100 100 100 100 100 100 100 100 100 100 100 99 99 100 100 100 100 100 100 99 99 100 100 100 100 99 100 100 97 94 90 85 82 79 79 83 88 94 97 97 97 98 98 100 100 99 100 100 99 98
100 100 99 99 100 100 99 100 100 100 99 99 99 98 99 100 100 100 100 100 100 100 100 100 100 100 99 99 99 100 97 95 91 85 81 80 81 83 84 86 86 87 89 92 95 98 99 99 100 98 97 96
100 100 99 100 100 99 99 100 99 97 95 95 96 97 100 100 99 100 100 100 100 100 100 100 100 99 96 95 98 100 100 98 95 91 87 86 85 85 85 84 83 83 83 87 91 92 93 93 94 94 94 95
100 100 100 100 99 100 100 100 99 96 92 91 91 93 97 98 98 99 100 100 100 100 100 100 100 99 95 93 95 97 98 99 98 95 92 90 87 88 89 88 89 89 88 88 88 87 87 89 90 90 91 93
100 100 100 99 99 100 100 100 100 98 94 92 89 89 92 95 96 97 98 99 99 100 100 100 100 100 99 96 95 94 96 97 97 96 94 90 89 89 90 89 90 92 92 91 90 89 90 92 92 91 91 92
100 99 99 98 98 99 99 100 100 100 98 96 93 89 88 90 92 95 96 96 97 98 99 100 99 100 100 99 98 97 96 95 95 96 94 92 91 90 90 90 91 92 93 94 96 96 97 97 96 95 94 94
99 99 99 98 98 98 98 98 98 99 100 100 98 95 91 88 89 93 95 95 95 95 97 98 99 100 100 100 100 100 99 98 96 95 94 94 92 92 92 92 92 94 94 97 99 99 100 99 99 99 97 97
98 98 97 96 96 96 95 95 95 97 98 99 100 99 96 92 91 93 95 96 96 94 94 95 98 99 100 100 100 100 100 100 99 97 95 94 93 93 94 94 95 96 96 97 100 100 100 99 100 100 100 100
95 95 95 94 94 94 93 92 92 93 94 94 96 98 98 98 97 97 97 97 97 96 94 94 96 98 99 100 100 100 100 100 100 98 96 95 95 94 95 97 97 98 98 98 99 100 100 100 100 100 100 100
94 94 92 92 92 92 91 91 91 91 91 91 92 93 95 97 98 99 100 98 97 96 95 94 95 97 98 99 100 100 100 100 100 99 97 95 95 95 96 97 97 98 98 99 99 100 99 100 100 100 100 99
94 93 91 91 90 90 90 90 91 90 90 90 90 91 91 93 94 96 98 98 98 96 94 94 94 95 98 99 100 100 100 100 99 99 98 95 95 95 95 96 96 97 97 97 98 97 97 97 97 97 97 98
90 88 88 89 88 89 90 90 90 89 90 90 89 90 90 90 91 93 94 95 96 95 94 93 92 93 96 98 100 100 100 100 100 100 99 97 95 94 95 96 96 95 95 95 94 92 91 90 91 91 92 93
91 89 90 91 91 92 92 90 89 89 89 89 89 88 88 88 89 90 91 92 92 93 94 94 93 92 92 95 98 100 100 100 100 100 99 98 96 95 94 94 95 94 92 91 89 88 86 82 81 82 83 85
94 94 95 95 96 96 95 92 90 90 89 88 88 87 87 87 87 87 88 89 90 91 91 92 93 93 93 93 95 98 100 100 100 100 100 99 96 95 94 93 93 92 91 89 85 86 88 86 80 77 76 77
95 95 94 94 95 95 97 95 93 93 92 90 89 86 87 86 86 87 86 87 88 89 90 91 92 93 94 95 95 96 99 100 100 100 100 100 98 96 94 93 92 91 91 88 83 83 91 91 87 87 84 78
96 93 91 90 91 93 95 94 91 88 88 90 89 87 86 87 87 88 87 87 87 87 89 89 91 92 94 96 96 97 99 100 100 100 100 100 99 97 96 95 92 91 90 88 84 85 91 90 89 95 94 89
94 89 85 83 82 84 88 90 85 81 86 91 92 89 87 88 88 87 88 88 87 87 87 88 89 90 91 93 95 97 99 100 100 100 100 100 100 98 97 96 93 91 90 89 86 86 91 92 93 95 93 93
91 91 92 90 87 89 93 96 94 93 95 97 97 94 91 91 90 88 88 87 88 88 87 87 88 89 90 91 92 95 97 99 100 100 100 100 100 99 97 96 93 91 91 90 88 87 89 91 92 92 90 93
84 89 94 96 97 99 100 100 100 100 100 99 99 96 93 92 91 90 88 87 88 87 87 88 87 87 88 90 91 93 94 97 99 99 100 100 100 100 98 96 95 93 93 92 90 88 88 89 89 88 88 92
Wind_Speed
15 15 15 16 17 18 18 19 20 20 21 22 23 25 26 27 28 28 25 23 23 23 23 24 23 22 23 24 21 19 16 15 15 15 17 16 14 13 13 14 15 18 18 16 16 16 16 15 16 16 17 15
18 16 16 15 15 16 18 18 18 19 19 20 21 23 24 24 25 28 28 25 24 24 25 26 26 24 25 24 22 19 17 16 15 15 15 15 14 13 13 14 17 19 18 16 17 16 15 16 16 17 18 17
19 17 16 16 15 15 16 17 18 19 18 18 19 21 22 23 22 25 27 26 26 26 26 27 27 26 26 26 23 20 18 18 18 17 15 15 15 14 15 17 18 18 16 16 18 17 16 17 17 18 19 19
19 18 17 16 16 15 15 16 17 18 18 18 18 18 19 20 21 23 26 27 28 28 28 30 29 28 28 28 25 22 20 19 21 20 17 15 16 15 17 18 17 17 17 16 18 18 18 19 19 20 20 21
19 18 17 17 17 17 16 16 17 17 18 18 18 18 17 17 18 20 23 26 29 29 31 32 30 30 30 29 28 25 22 21 23 23 20 17 17 19 20 19 17 18 18 18 19 19 19 20 21 21 21 22
18 18 17 17 18 18 17 17 17 17 18 18 18 18 17 16 16 17 19 22 26 28 32 33 31 31 31 31 29 28 26 25 25 25 23 20 20 22 22 21 19 20 20 21 20 20 21 21 21 22 22 22
18 18 18 18 19 18 18 18 18 19 19 19 19 19 18 17 15 15 18 20 24 28 32 34 33 33 33 32 30 29 29 28 27 27 25 22 22 24 25 24 22 23 24 23 22 21 22 22 22 22 22 23
19 19 19 18 19 19 19 19 19 19 19 20 20 20 20 19 17 15 16 19 21 26 31 35 35 34 34 33 31 30 29 29 28 27 25 23 24 25 26 26 25 24 25 24 22 22 23 23 22 23 23 23
20 19 18 19 19 20 20 20 20 20 19 20 21 21 22 21 20 17 15 16 18 21 24 31 36 36 35 31 30 30 29 27 25 23 22 21 23 26 26 25 25 24 25 24 23 23 23 24 23 23 23 23
20 18 18 19 19 19 20 21 21 21 20 20 21 22 23 23 22 20 18 17 17 18 20 25 32 35 34 30 30 31 29 24 20 21 20 16 15 21 24 23 22 22 23 24 23 24 24 24 24 24 25 24
18 18 18 18 19 19 20 20 20 21 21 21 22 21 22 23 22 21 20 19 18 18 19 22 25 27 29 29 30 31 28 22 18 17 17 13 9 9 15 18 20 20 21 22 22 24 24 25 25 24 24 23
17 17 17 18 18 20 20 20 20 20 21 21 21 21 21 22 22 21 20 20 19 19 19 20 20 19 21 24 28 30 27 22 17 14 14 15 15 11 10 12 15 17 18 19 20 22 22 22 23 23 22 20
16 16 16 17 18 20 21 21 21 20 21 21 21 21 21 22 21 21 20 19 19 19 18 17 15 14 14 15 21 25 26 24 22 21 20 20 21 20 17 13 12 13 13 13 15 17 18 19 19 19 18 17
16 16 16 17 18 19 20 21 20 21 22 23 23 23 22 22 20 19 19 18 18 18 17 14 11 11 11 11 12 17 21 23 24 24 23 23 22 21 21 18 16 15 13 12 12 12 12 12 13 14 15 15
16 16 16 17 18 18 18 19 19 21 23 25 26 25 24 23 22 20 18 18 17 16 16 14 11 10 10 10 9 11 14 16 18 19 19 19 19 18 19 19 19 19 19 18 15 12 10 9 10 12 14 14
16 16 17 17 17 17 17 17 17 18 20 23 24 25 25 24 24 22 20 19 18 16 16 16 14 13 11 11 10 10 10 11 14 16 16 16 15 16 17 17 17 17 17 18 16 15 15 15 15 16 15 15
16 16 17 17 17 17 17 17 16 17 18 19 21 23 23 23 23 23 22 21 20 18 17 16 16 14 12 11 12 11 10 11 13 14 16 16 16 16 16 16 16 15 15 15 16 17 17 18 17 17 16 15
16 16 17 17 17 18 18 17 17 17 17 17 18 19 20 21 22 22 22 22 21 19 17 16 15 15 13 11 10 10 10 11 12 13 15 15 16 17 17 17 16 16 16 15 15 15 16 16 16 16 15 14
15 15 16 17 17 17 17 17 17 18 18 17 17 17 17 19 20 20 21 21 21 20 18 17 15 15 13 11 9 8 9 10 10 12 13 14 16 17 18 17 17 17 17 17 15 14 14 14 15 15 15 14
15 15 16 16 17 17 17 17 18 19 19 18 17 17 17 17 18 19 19 19 19 19 18 17 16 14 12 10 9 8 8 8 9 10 12 13 14 15 16 17 17 17 17 17 15 14 12 12 12 13 13 13
14 14 16 16 16 17 18 19 20 19 19 18 19 19 19 18 17 17 17 17 17 17 17 16 14 13 12 10 8 8 8 7 8 9 11 12 12 13 14 15 15 15 15 15 14 13 12 11 11 12 13 12
13 13 14 15 16 17 18 19 19 19 19 20 20 20 20 19 18 17 17 17 16 16 15 14 13 11 10 9 9 8 7 7 7 8 9 10 11 10 11 13 13 14 14 14 13 12 11 10 11 11 11 11
12 12 12 14 15 16 19 20 20 20 21 21 21 21 20 19 19 18 18 17 16 16 15 14 13 11 10 8 7 7 7 7 7 8 9 9 9 10 10 11 12 14 14 13 12 11 10 8 9 9 9 9
13 13 13 14 15 16 19 20 20 21 21 21 21 21 20 19 19 19 18 17 17 16 15 14 13 12 11 9 7 7 7 7 8 8 9 9 10 10 10 11 12 13 13 13 12 10 9 8 7 6 6 6
17 18 17 17 17 18 19 19 19 21 22 22 21 20 20 20 20 19 19 18 17 17 16 15 13 12 11 10 9 7 7 7 8 9 10 10 9 10 11 12 13 14 13 11 9 8 7 6 5 3 3 2
18 19 18 16 16 16 17 18 18 19 20 20 20 20 20 21 20 20 20 19 18 17 16 15 15 14 12 11 9 8 8 8 8 8 9 10 9 10 11 12 14 16 12 7 6 6 4 3 2 1 1 1
15 16 15 14 14 14 14 16 17 17 18 19 19 20 21 21 21 21 21 20 19 18 17 16 15 14 14 12 10 9 8 8 7 8 8 9 10 10 10 11 14 17 12 6 7 6 2 0 0 2 2 1
12 11 12 11 12 12 12 14 15 15 17 19 20 21 22 22 22 22 21 21 20 20 18 17 16 15 14 13 12 10 9 8 7 6 7 9 10 9 8 8 13 17 12 7 6 3 1 1 1 2 2 2
11 11 11 10 11 12 13 15 16 18 20 21 22 23 23 23 23 22 21 21 20 20 19 18 17 16 15 14 13 11 10 8 7 6 6 8 10 9 7 7 10 16 13 9 7 3 1 1 1 2 2 3
13 14 15 15 16 18 19 19 20 21 21 22 22 22 22 21 21 21 21 21 20 20 20 19 18 17 16 15 14 13 11 9 7 6 5 7 9 9 9 8 8 13 15 12 9 6 2 1 2 1 3 2
14 15 15 16 17 17 18 18 18 19 19 19 20 20 20 19 19 20 20 20 20 19 19 19 18 18 17 16 15 14 12 11 10 8 6 6 7 8 10 10 8 10 14 14 13 11 8 5 4 1 3 2
Wind_Direction
331 320 314 311 311 315 314 314 313 312 311 309 304 302 297 290 276 262 249 243 247 247 248 249 246 237 229 232 233 235 243 248 250 249 251 249 242 238 238 240 235 233 238 236 231 222 217 217 216 217 213 213
338 328 321 316 314 314 312 311 310 308 308 308 305 302 301 297 285 271 254 245 245 242 245 248 247 242 235 234 232 233 240 245 245 245 252 249 240 236 236 234 231 234 238 235 230 221 214 215 216 217 214 213
340 332 325 320 317 317 316 314 312 310 310 309 305 302 303 301 291 274 257 248 247 244 245 246 247 245 238 236 234 233 236 242 244 244 249 246 238 231 229 234 235 236 238 231 226 221 213 213 215 215 214 211
340 335 328 323 321 321 319 318 316 313 313 312 308 305 304 304 297 282 265 254 248 243 243 243 244 245 240 236 236 236 234 239 245 245 243 241 235 225 226 235 238 236 234 228 224 223 215 211 213 213 213 208
340 338 332 328 327 329 328 325 322 318 316 315 314 312 308 307 304 293 279 265 254 246 242 243 244 244 242 238 237 238 234 236 245 245 242 241 232 221 225 232 234 233 230 226 223 223 217 212 211 211 209 206
343 341 337 335 335 338 341 338 333 329 327 325 322 319 315 314 312 304 298 282 266 256 245 244 246 245 243 241 238 237 235 235 241 244 242 241 230 224 228 226 226 228 225 222 220 219 216 213 212 210 209 206
348 347 348 346 344 346 349 350 347 343 341 339 335 329 323 322 321 315 312 300 278 265 250 243 245 246 245 243 239 238 238 237 238 241 243 241 232 229 230 224 222 223 219 216 214 213 213 214 213 211 210 208
355 356 358 355 351 351 351 354 355 352 350 347 344 341 337 332 329 320 314 308 288 272 255 244 243 244 244 243 239 239 239 237 238 240 241 240 234 230 229 224 221 219 215 212 210 210 211 212 212 210 210 209
1 1 3 0 356 355 354 355 356 356 353 350 348 347 345 341 338 329 316 313 303 288 269 252 246 243 241 240 236 234 234 234 238 236 234 238 232 226 225 223 219 216 213 211 209 209 210 210 209 209 209 208
6 5 6 5 0 358 357 356 358 357 355 353 353 351 348 347 345 340 329 322 311 303 294 273 258 248 241 238 233 230 230 232 234 228 224 235 230 214 214 213 207 205 206 205 205 205 206 206 205 205 204 203
7 8 9 8 5 3 1 0 0 359 360 359 358 355 352 351 349 346 339 330 319 313 308 289 272 257 243 234 228 225 226 229 229 225 223 239 252 209 199 200 193 191 193 196 197 199 200 201 201 200 200 200
9 10 10 11 10 10 8 6 5 5 6 5 3 0 358 356 353 350 346 339 331 325 318 302 286 267 247 234 228 224 225 228 230 236 237 243 257 246 211 194 187 184 183 184 186 188 190 192 195 196 197 198
13 15 14 15 15 15 12 11 11 12 12 9 8 7 4 359 357 357 354 349 343 335 325 310 290 265 246 235 228 226 229 233 234 238 243 243 244 237 220 205 192 186 181 178 178 182 183 183 187 189 191 197
17 18 20 19 19 17 14 14 14 15 17 15 13 11 7 4 3 4 1 357 354 349 337 317 294 269 253 245 233 228 231 235 235 237 242 241 238 233 225 219 213 209 206 200 194 189 187 182 180 182 188 198
20 21 24 23 22 19 16 15 15 16 17 17 17 13 9 8 7 6 5 3 1 3 356 340 324 307 283 270 258 246 242 240 238 238 237 234 233 231 223 215 210 210 208 204 203 201 201 203 197 194 199 203
21 22 25 25 24 22 20 18 17 18 16 15 15 13 11 10 9 8 8 7 4 6 6 359 349 336 318 302 292 285 274 258 246 239 233 226 223 219 209 200 193 192 195 193 193 198 202 205 204 203 204 206
23 20 22 23 22 22 22 20 19 22 21 18 14 10 10 10 11 11 10 10 8 6 6 5 0 350 338 324 309 300 285 263 248 237 230 221 213 207 199 193 185 180 183 182 184 190 194 195 196 197 198 203
26 21 22 21 20 22 22 21 22 25 24 22 17 13 10 9 10 12 11 10 9 8 7 5 4 358 349 336 317 299 283 265 247 231 221 211 202 197 193 190 183 180 178 174 174 176 181 186 187 187 190 197
30 26 26 23 22 24 23 23 24 25 25 21 18 19 16 10 8 11 11 10 8 7 7 7 5 1 355 344 327 303 284 267 248 230 215 202 194 188 183 183 179 178 175 169 168 166 167 172 173 175 179 186
36 34 32 28 27 28 27 28 27 26 24 20 18 20 20 14 10 10 11 10 8 6 5 7 6 1 356 347 332 308 284 263 245 228 212 198 194 188 179 177 174 172 171 167 165 163 160 157 155 158 164 171
41 41 39 34 33 32 30 30 29 27 25 22 21 21 20 18 14 13 12 12 10 6 3 4 4 1 355 347 338 319 295 271 246 225 212 197 193 192 181 174 168 162 162 161 159 159 158 152 147 148 151 156
42 44 43 40 39 36 34 33 31 29 26 26 25 24 22 19 17 15 14 14 12 9 5 2 0 359 355 347 338 326 308 284 256 232 221 205 194 194 185 176 169 161 157 154 151 147 145 144 144 144 147 150
36 39 39 35 36 35 34 32 30 29 27 27 27 25 24 21 21 19 17 15 13 11 7 2 358 354 352 347 337 326 312 292 268 245 234 222 208 200 190 184 177 168 160 151 142 133 125 125 134 138 143 148
34 35 36 33 31 30 31 29 29 29 27 27 27 26 24 23 24 22 21 19 15 13 10 5 0 353 348 343 335 327 318 302 282 263 246 235 224 212 198 188 182 177 169 153 131 119 116 108 109 119 131 144
33 30 30 30 29 30 31 29 30 30 28 27 26 25 25 25 25 24 23 23 19 16 12 8 4 358 350 343 336 330 325 313 295 277 260 246 231 219 202 188 184 182 175 158 129 111 104 92 81 83 92 109
34 31 29 28 29 30 32 31 31 32 29 28 27 25 26 25 24 24 23 23 21 18 14 11 7 3 358 350 341 330 321 315 302 284 265 248 232 223 209 198 191 182 175 171 155 136 106 72 54 8 349 9
35 32 30 32 30 29 31 30 31 33 30 28 27 26 26 25 23 22 22 22 21 19 17 14 10 6 2 357 352 341 326 317 306 289 268 246 236 229 217 211 199 189 189 188 159 143 135 113 109 264 242 240
38 34 33 37 36 35 36 31 29 31 27 24 25 24 23 23 22 21 21 20 20 20 18 15 13 9 4 0 357 353 343 331 317 295 270 249 241 234 228 226 207 201 205 196 168 148 118 105 87 257 202 142
40 38 38 37 36 36 35 30 26 26 22 20 21 22 21 21 21 21 20 20 19 18 17 16 14 11 7 3 358 355 353 346 334 308 277 255 246 236 240 253 227 215 215 206 200 198 108 103 286 265 149 125
40 40 37 33 31 30 29 27 24 22 18 16 18 19 20 19 20 21 19 19 19 18 17 16 14 12 9 6 1 357 353 348 341 325 298 272 258 245 242 258 251 230 226 223 225 230 226 287 314 301 132 139
39 41 40 37 37 34 31 29 24 21 18 15 15 16 18 19 19 20 19 18 18 18 17 16 15 14 10 7 4 359 354 347 342 336 324 301 279 264 255 256 256 241 235 234 236 242 247 272 311 283 157 168